Wind_Speed
51 56 57 56 55 55 55 56 57 58 57 56 54 52 52 52 53 54 54 53 53 53 53 53 52 53 53 54 55 56 57 58 58 59 60 61 62 62 63 64 65 66 68 68 68 67 67 66 66 65 64 63 63 62 61 60 59 58 58 57 57 56 56 56 55 55 54 53 52 52 51 50 49 49 48 48 48 49 49 49 49 49 49 49 49 49
41 45 47 49 49 50 50 52 53 54 54 54 53 52 52 53 54 55 54 53 53 53 53 52 51 51 51 51 52 53 54 54 55 56 57 58 59 60 61 63 65 67 68 69 69 69 68 67 67 66 65 64 64 64 63 62 62 61 60 59 59 58 59 58 58 57 56 55 54 52 52 51 50 50 50 49 49 50 50 50 50 50 51 51 51 50
38 40 42 43 44 44 45 46 48 50 51 51 52 53 54 55 56 56 54 52 52 52 52 52 51 50 49 50 50 50 50 51 52 53 54 55 56 58 60 62 64 67 69 70 70 70 69 68 67 66 65 65 65 65 65 64 64 63 62 61 61 61 61 61 60 59 58 57 55 54 53 52 51 51 51 51 51 51 51 51 51 51 52 52 52 52
39 40 41 41 41 41 41 42 43 45 47 48 50 51 53 55 56 57 56 54 53 52 51 50 49 49 48 48 48 48 48 48 49 51 52 54 55 56 58 60 63 66 69 70 71 71 70 69 68 67 66 66 66 66 66 66 66 66 65 64 63 63 63 62 62 61 60 58 57 55 54 53 53 52 52 52 52 52 52 52 52 52 52 52 53 54
43 42 42 42 41 40 40 40 40 41 43 44 46 47 49 51 53 56 57 57 56 54 52 50 49 48 48 48 47 47 47 47 48 50 51 53 54 55 57 58 61 65 68 70 71 71 70 69 68 67 67 67 67 67 68 68 68 68 67 67 66 65 64 64 63 62 61 60 59 57 56 56 55 55 54 54 54 54 53 53 53 53 53 53 54 54
48 46 45 44 43 42 40 39 38 38 39 40 41 43 44 45 47 50 53 57 59 59 57 54 52 50 50 49 48 48 48 49 49 50 51 53 54 55 56 57 59 62 65 68 69 69 68 67 67 67 68 67 67 68 68 69 69 69 69 68 68 67 66 65 65 64 63 62 61 60 59 59 58 57 57 56 56 55 55 55 55 54 53 53 54 55
57 53 50 48 46 45 43 41 39 37 37 37 38 38 39 39 40 42 46 52 57 60 60 59 56 54 52 51 50 50 50 51 51 52 52 53 54 55 56 56 58 60 62 64 65 65 65 65 65 66 67 67 67 67 67 68 68 69 69 69 68 68 67 67 66 66 65 65 64 63 63 62 61 60 59 58 57 57 57 57 56 55 54 54 54 55
64 62 59 56 53 50 48 45 43 41 39 38 37 37 37 37 37 38 40 44 49 53 56 57 57 55 53 51 50 50 51 52 52 53 53 53 53 53 54 54 55 56 58 59 60 61 61 62 63 64 64 65 65 65 66 66 67 67 68 68 68 68 67 67 67 67 67 67 66 66 65 64 63 62 61 60 59 58 58 58 58 57 56 56 55 56
67 67 66 64 61 58 55 52 50 47 45 42 41 39 38 37 36 36 36 38 41 44 47 49 50 51 51 50 50 51 52 53 53 53 53 52 52 52 52 51 52 52 53 54 55 57 58 59 60 61 62 62 62 63 63 64 65 66 67 67 67 67 66 66 66 67 67 68 68 67 67 66 65 64 63 62 61 61 60 60 59 58 57 57 56 56
69 70 70 69 66 64 62 59 57 54 51 49 47 44 42 41 39 37 36 35 36 38 39 41 42 43 45 46 48 50 52 53 54 54 53 52 52 51 51 50 50 50 50 51 52 53 54 55 56 58 59 60 60 60 61 62 63 64 65 66 66 66 65 65 65 66 67 67 67 67 67 67 66 65 65 64 64 63 63 63 62 61 60 58 57 55
70 71 72 71 69 67 66 64 62 60 58 55 53 50 48 46 43 41 39 37 36 36 36 36 37 37 38 41 43 46 50 52 54 55 54 53 52 51 50 50 49 49 49 50 50 51 52 53 54 55 56 56 57 57 58 59 61 63 64 65 65 65 65 65 65 65 66 67 67 67 67 66 66 66 66 66 65 65 65 65 65 64 62 61 58 55
70 71 72 73 72 71 69 68 66 65 63 61 59 56 54 51 49 48 46 43 40 39 38 37 36 36 36 37 39 42 45 49 52 54 54 54 53 52 51 50 49 49 49 50 50 52 53 53 54 54 54 54 54 55 56 58 59 61 63 63 64 64 64 65 65 66 66 67 67 67 66 65 65 65 66 66 66 66 66 66 65 65 64 62 59 56
69 71 72 73 73 72 71 69 68 67 66 65 64 63 61 58 55 54 52 50 48 46 44 42 40 38 37 37 37 39 41 45 48 51 53 53 53 53 52 51 51 50 50 51 52 53 55 55 55 54 54 53 54 54 56 57 59 61 62 63 63 63 64 65 65 66 67 67 67 67 66 65 64 64 65 65 66 66 65 65 65 65 64 62 60 57
68 70 71 72 73 73 71 70 68 68 67 67 66 66 64 62 61 59 58 56 55 53 51 50 47 44 41 39 38 38 39 41 44 47 50 53 54 54 54 53 53 52 52 53 54 56 57 57 57 56 55 54 54 55 56 57 59 60 61 62 62 63 63 64 65 66 67 67 67 67 66 64 64 64 64 65 65 65 65 64 64 64 63 62 60 58
67 68 69 70 71 71 71 70 69 68 68 68 68 67 67 66 65 64 63 62 61 59 58 57 55 51 47 44 42 40 40 40 41 44 47 50 53 55 56 56 56 55 54 55 56 57 59 58 58 57 56 55 55 56 56 57 58 59 61 61 62 62 62 63 64 65 66 66 66 65 64 63 62 62 63 63 63 63 63 63 63 63 62 61 59 57
65 66 67 68 69 69 69 69 69 68 68 69 69 68 68 67 67 67 66 65 64 63 63 62 61 58 54 50 47 44 43 42 41 42 44 47 50 54 57 59 59 59 58 58 58 59 59 59 59 58 57 57 56 56 57 57 58 58 59 60 60 60 61 62 62 63 64 64 63 61 60 59 59 59 59 59 60 60 61 61 62 61 61 59 58 56
63 64 65 66 66 66 67 68 68 68 68 69 69 70 69 69 68 68 66 65 65 64 65 65 64 63 60 56 53 50 48 46 44 43 43 44 46 49 54 58 61 62 61 61 61 60 60 60 59 58 58 57 57 57 57 57 57 57 57 57 57 58 58 59 60 60 61 60 59 57 56 55 55 55 55 56 56 56 57 58 58 59 59 58 56 55
62 63 64 65 65 65 65 66 66 67 68 68 69 70 71 70 69 68 67 66 65 65 65 66 66 65 63 62 59 56 54 52 50 48 46 44 44 45 48 53 58 62 64 64 64 62 61 60 60 59 58 58 57 57 57 56 56 55 55 55 55 55 56 56 57 58 58 57 56 55 54 53 53 53 54 54 54 54 54 55 55 56 56 56 56 56
62 62 63 63 64 64 63 64 65 66 67 68 69 70 71 71 70 68 67 66 66 65 65 65 65 66 65 64 62 60 59 57 55 53 51 48 46 45 45 48 52 57 62 65 66 65 64 62 61 60 59 58 57 57 56 55 55 54 54 54 54 54 54 55 56 56 57 57 56 55 54 53 53 54 54 54 54 54 54 54 54 54 54 54 55 56
62 62 62 63 63 63 62 63 63 65 66 67 68 69 70 71 70 69 67 66 66 65 65 64 64 65 65 65 64 63 62 61 59 57 55 53 51 48 46 46 48 51 56 61 65 67 67 66 64 62 60 59 58 57 56 55 55 54 54 54 54 54 54 55 56 56 57 57 56 55 54 53 53 54 54 54 54 54 54 53 53 53 53 53 54 55
63 63 63 63 63 62 62 62 63 64 65 66 67 68 69 70 70 69 67 66 65 64 64 64 64 64 65 64 64 64 64 63 61 60 59 57 55 53 51 49 48 48 50 54 60 65 69 69 68 65 63 61 59 58 58 57 56 56 56 56 55 55 55 56 56 57 57 57 56 55 54 53 52 53 53 53 54 53 53 53 53 53 53 53 53 54
64 64 64 63 63 62 62 63 63 63 63 64 65 66 68 69 69 68 67 66 64 63 63 63 64 64 64 63 64 65 64 63 63 62 61 60 59 58 56 54 52 50 49 49 52 58 64 69 70 70 67 65 63 61 60 60 59 59 59 59 58 58 58 58 58 58 57 57 56 55 54 52 52 51 52 52 52 53 53 53 53 53 53 53 53 53
65 65 65 64 63 63 63 63 62 62 62 63 64 65 67 67 67 67 67 65 64 63 63 63 63 63 62 63 63 64 63 64 64 64 63 62 62 61 60 58 57 55 52 50 49 51 57 63 68 70 70 69 67 66 65 64 64 63 63 63 62 62 61 60 59 59 59 58 57 56 55 54 53 52 51 51 51 52 52 53 53 53 53 53 53 54
65 66 65 65 65 64 64 63 62 62 62 62 63 64 65 65 66 66 66 65 64 63 63 62 60 60 61 62 63 62 62 63 63 64 64 64 64 63 62 61 60 59 57 54 52 51 52 55 60 64 67 69 69 69 68 68 68 67 67 67 66 65 64 63 62 61 60 60 59 59 58 57 56 54 53 52 52 52 52 52 53 53 54 54 54 54
66 66 66 66 66 66 65 64 64 63 63 63 63 63 63 63 64 65 65 64 63 63 62 61 59 58 60 61 61 61 61 61 62 63 64 64 64 64 64 63 62 61 60 59 57 55 53 53 54 56 59 62 64 65 66 67 67 68 68 67 67 66 65 64 64 63 62 62 61 61 61 60 59 58 57 55 54 53 53 53 53 54 54 54 54 55
66 66 67 67 67 67 67 66 65 64 64 63 63 63 62 62 62 63 63 63 63 63 62 61 60 60 60 59 58 58 59 59 60 61 63 64 64 64 64 63 62 62 61 61 60 59 57 56 55 54 54 55 56 58 60 61 63 64 64 65 65 65 65 65 64 64 63 63 63 63 63 63 62 62 60 59 57 56 55 54 54 54 54 54 54 55
66 66 67 67 68 68 68 68 67 66 65 65 64 63 63 62 62 61 62 62 63 63 63 62 62 62 61 59 59 58 58 57 58 59 61 62 62 63 64 63 62 61 61 61 61 61 60 59 58 57 56 54 54 54 55 56 57 58 60 61 61 62 63 63 63 63 63 63 63 63 64 64 64 64 63 62 61 59 58 56 55 55 54 53 53 54
67 67 67 67 68 68 69 69 69 68 67 66 65 65 64 63 62 62 62 63 64 63 63 63 64 63 62 61 61 61 59 58 58 58 59 60 61 62 63 63 62 61 61 61 61 61 61 61 60 59 58 57 55 54 54 54 55 55 56 57 58 59 60 61 61 62 62 63 63 64 65 65 66 65 65 64 63 62 60 58 57 55 54 53 53 52
69 68 68 68 68 69 69 69 70 69 69 68 67 66 65 64 63 63 64 64 64 63 63 64 64 64 64 64 64 63 61 60 60 59 59 59 60 62 62 62 61 61 61 61 60 60 61 61 61 60 59 58 57 55 55 54 54 54 54 55 56 56 57 58 59 60 61 62 63 65 66 67 67 67 66 66 65 64 62 60 58 56 54 53 52 51
70 70 69 69 69 69 69 70 70 70 70 70 69 68 67 66 65 65 65 64 63 63 63 64 65 65 65 65 66 65 64 63 63 62 60 60 61 62 62 61 61 62 62 61 61 61 61 61 61 60 59 58 57 56 55 54 54 53 53 54 54 54 54 55 56 57 59 61 63 64 66 67 67 67 67 67 66 65 63 60 58 56 54 53 52 51
72 71 71 70 70 70 70 70 71 71 71 71 71 70 69 68 67 67 66 65 64 64 64 65 65 65 66 66 67 68 67 67 66 64 63 62 63 63 62 61 62 63 63 62 62 62 62 62 61 60 59 59 58 57 55 54 53 53 52 52 52 52 53 53 54 55 57 58 61 63 64 65 66 67 67 67 66 65 62 60 58 56 54 52 52 51
73 72 72 72 71 71 71 71 71 71 72 72 72 71 71 70 69 69 67 66 65 65 65 65 65 65 66 67 68 69 70 70 69 67 65 65 66 65 64 63 63 64 64 63 63 63 63 62 62 61 60 59 58 57 56 54 53 52 52 51 51 51 51 51 51 52 54 56 58 60 62 63 64 65 66 66 65 63 61 59 57 55 53 52 51 51
74 74 73 73 72 72 72 72 72 72 72 73 73 72 72 72 71 70 69 68 67 67 66 65 65 65 66 67 69 71 72 73 72 70 68 68 68 67 66 66 66 66 65 65 65 65 64 63 62 61 60 59 59 58 56 55 54 52 51 50 50 49 49 49 49 50 52 54 55 57 59 60 61 62 63 62 61 60 58 57 56 54 53 52 51 51
75 75 74 74 73 73 73 73 73 73 73 73 73 73 73 73 73 72 71 70 69 68 67 66 65 65 65 66 69 71 73 75 75 74 73 71 70 69 68 68 68 68 67 67 66 66 66 65 64 62 61 61 60 59 57 56 55 53 51 50 48 48 47 47 47 48 50 51 53 55 56 57 59 59 60 59 58 57 56 56 55 54 53 52 51 52
76 75 75 74 74 74 74 73 74 74 74 74 74 74 74 74 74 73 73 72 71 70 69 68 67 66 65 66 67 70 73 75 77 78 77 75 73 71 69 69 69 70 69 69 69 68 67 67 65 64 63 62 61 60 59 58 57 55 52 50 48 47 45 45 45 46 47 49 50 52 53 55 56 56 56 56 56 56 56 55 55 54 54 53 52 52
76 75 75 75 74 74 74 74 74 74 74 74 74 74 74 74 74 74 74 73 73 72 70 69 68 67 66 66 66 68 71 75 77 79 79 79 77 75 72 70 70 70 70 71 71 70 70 69 68 66 65 64 64 63 62 61 59 57 55 52 50 47 45 44 44 44 45 46 47 49 50 52 53 54 54 54 55 55 55 55 55 55 55 54 53 53
76 75 75 75 75 74 74 74 74 74 74 74 74 75 74 75 75 74 74 74 74 73 72 71 70 68 67 67 66 67 69 72 75 78 80 81 80 78 76 74 72 71 70 71 71 72 72 71 70 69 68 67 66 66 64 63 61 59 58 56 53 50 48 46 44 44 44 44 45 46 47 49 50 51 53 53 54 55 55 56 56 56 55 55 54 53
75 75 75 75 75 74 74 74 75 75 75 74 74 74 74 74 75 75 75 75 74 74 73 72 71 70 69 68 67 67 68 70 72 75 79 81 82 81 80 78 76 73 72 71 71 71 71 72 72 71 71 70 69 68 66 65 63 62 61 59 56 54 52 50 48 46 45 44 43 43 44 45 47 49 50 52 53 54 55 55 56 55 55 54 53 52
75 74 74 74 74 74 74 74 75 75 75 74 74 74 74 74 74 75 75 75 75 75 74 73 73 72 71 70 69 68 68 68 70 72 76 79 81 82 82 81 79 77 75 73 72 71 70 70 71 71 72 71 71 70 69 67 66 64 63 61 60 58 56 54 52 50 48 47 45 44 43 43 44 45 47 49 50 52 53 54 54 54 53 53 52 51
74 73 73 73 73 73 73 74 74 74 74 74 74 74 74 74 74 75 75 75 75 75 75 74 73 73 72 71 70 69 69 68 69 70 73 76 79 81 82 83 82 81 79 77 75 72 71 69 69 70 71 71 72 71 70 69 67 66 65 63 62 61 60 58 56 55 53 52 49 48 46 45 44 44 45 46 47 48 50 51 51 51 51 51 51 50
72 72 72 72 72 72 73 73 73 73 73 73 73 73 73 74 74 74 75 75 75 75 75 74 74 73 73 72 71 71 70 69 69 69 70 72 75 78 81 82 83 83 82 80 78 76 73 71 69 68 69 70 71 72 72 71 69 67 65 65 64 63 62 60 59 58 57 55 54 52 50 49 48 47 46 46 46 46 47 48 49 49 50 50 50 51
71 70 70 70 70 70 71 72 72 72 72 72 72 73 73 73 74 74 74 74 75 75 75 74 74 74 73 73 72 72 71 70 70 70 70 71 72 75 77 80 82 83 83 82 80 79 77 74 70 68 67 68 70 71 72 72 71 68 66 66 66 65 63 62 60 59 57 56 55 54 53 52 51 50 49 48 47 47 47 48 49 50 51 51 52 52
69 69 69 68 68 69 69 70 70 70 71 71 72 72 73 73 73 73 73 74 74 74 74 74 74 74 73 73 73 72 72 71 71 70 70 70 71 72 74 77 79 81 82 82 81 81 79 77 73 70 68 67 68 70 71 73 72 70 68 67 66 65 64 63 62 60 57 56 55 54 53 52 52 52 51 50 49 49 49 50 52 53 54 54 55 55
68 67 67 66 66 67 67 67 68 69 70 70 71 71 72 72 72 72 72 73 73 74 74 74 74 73 73 73 73 73 72 72 71 71 71 70 70 71 72 74 76 78 80 81 81 81 80 78 75 72 70 68 67 68 70 72 72 71 69 68 67 65 65 65 64 61 59 57 56 55 54 53 53 52 52 51 51 51 51 53 55 56 57 58 58 58
66 65 64 64 64 64 65 65 67 67 68 68 69 70 70 70 71 71 71 72 72 73 73 73 73 72 72 73 73 73 72 72 72 71 71 71 71 71 71 72 73 75 77 79 80 81 80 78 76 74 71 68 67 67 69 70 71 72 71 69 67 67 67 67 65 63 61 60 58 57 56 54 54 53 53 53 53 53 54 56 58 59 61 61 61 61
64 63 62 62 62 62 63 64 65 65 65 66 67 68 69 69 69 70 70 70 71 71 72 72 71 71 71 72 72 72 72 72 72 71 71 71 71 71 71 71 72 73 75 76 78 79 79 78 77 75 71 68 67 67 68 69 70 71 71 70 69 68 67 66 65 64 63 62 61 59 58 56 55 55 55 56 56 57 58 59 60 62 63 63 63 63
62 62 61 61 60 60 61 62 62 62 63 64 65 66 67 67 67 68 68 69 69 70 70 70 70 70 70 71 71 71 71 71 71 71 71 71 71 71 70 71 71 72 73 74 76 77 78 78 77 75 71 68 67 66 67 68 68 69 70 70 70 69 68 67 66 65 64 63 62 61 60 58 58 58 58 59 59 60 61 62 63 63 64 64 64 64
61 60 59 59 58 58 59 59 59 60 61 62 63 64 64 65 65 66 67 67 68 68 68 68 68 68 69 69 70 70 70 71 71 71 70 70 70 70 70 70 70 71 71 73 74 75 76 77 76 75 72 69 67 66 66 66 66 67 68 69 69 69 68 68 67 66 64 63 62 62 61 60 60 61 61 62 63 63 64 65 65 65 65 65 64 64
59 58 58 57 57 56 57 57 58 58 59 60 61 62 62 63 64 64 65 65 66 66 66 66 66 66 67 67 68 68 69 69 70 70 69 69 69 69 69 69 69 69 69 70 72 73 74 75 76 75 73 70 67 66 64 64 64 65 66 67 68 68 68 68 67 66 64 63 63 62 62 62 62 63 63 64 65 66 67 67 68 67 66 65 64 63
58 57 57 56 55 55 55 56 56 57 58 58 59 59 60 61 62 62 63 63 63 64 64 64 64 64 64 65 66 66 67 68 68 68 68 69 69 68 68 68 67 67 67 68 69 70 71 72 74 74 73 71 68 66 64 63 62 63 64 65 66 67 67 67 67 66 65 64 63 63 64 64 64 64 64 65 66 68 69 70 70 69 68 66 64 63
57 57 56 55 54 54 54 54 55 55 56 56 57 58 58 59 59 60 61 61 61 62 62 62 62 62 62 63 64 64 65 65 66 66 66 67 67 67 67 66 66 66 66 66 67 68 68 69 70 71 72 71 69 66 64 62 61 61 61 63 64 65 66 66 66 66 65 65 65 65 65 65 64 64 63 64 66 68 70 71 71 70 69 66 64 62
Wind_Direction
213 214 215 216 217 217 218 220 221 223 224 224 224 225 225 225 225 225 225 226 226 227 229 230 232 233 234 235 237 238 239 239 240 240 240 240 241 241 241 240 240 239 238 236 235 234 232 231 231 231 231 232 232 233 233 234 235 237 238 238 239 240 241 241 242 243 244 245 246 247 247 248 248 248 249 250 251 252 253 254 256 257 258 259 260 260
214 214 215 216 216 217 218 219 220 221 221 222 222 223 224 224 225 225 225 225 225 225 226 227 229 231 233 234 236 238 240 241 241 242 242 243 243 243 243 243 242 240 239 237 236 235 233 232 232 231 232 232 232 233 234 235 235 236 237 238 239 240 241 241 242 243 244 245 246 247 248 248 249 249 250 250 251 252 253 254 255 256 257 258 259 260
217 215 214 214 214 215 216 217 217 218 218 219 220 222 224 225 226 226 226 226 224 223 223 224 226 228 231 233 236 238 240 242 243 244 245 245 246 246 246 245 244 242 240 238 237 236 235 234 233 233 233 233 233 234 234 235 235 236 237 238 239 240 241 241 242 242 243 244 245 247 247 248 249 250 250 251 251 252 253 254 255 256 257 258 259 260
223 219 216 215 214 214 215 215 216 216 217 217 219 221 224 226 228 229 228 226 224 222 222 223 224 227 229 232 235 237 239 241 243 245 246 247 248 248 248 247 246 244 242 240 239 238 237 236 236 235 235 234 234 235 235 235 235 236 237 238 239 240 240 241 242 243 243 244 245 246 247 247 248 249 250 251 252 253 254 254 255 256 257 258 259 260
229 226 222 220 218 218 217 217 217 217 217 218 219 220 223 226 229 230 230 228 226 224 224 224 226 228 230 232 233 235 236 238 240 243 246 248 250 250 250 249 247 245 244 242 241 240 240 239 238 238 237 237 236 236 236 236 236 236 237 237 238 239 240 241 242 243 243 244 244 245 245 246 247 248 249 251 252 253 254 255 256 257 257 259 260 261
235 232 228 226 225 223 222 221 220 220 219 219 219 221 223 225 228 230 230 229 229 228 228 229 231 232 233 234 234 235 235 237 239 241 244 246 249 251 251 251 249 247 246 244 243 243 243 242 242 241 240 239 239 239 238 238 237 237 237 238 239 240 241 241 242 243 243 244 244 244 245 245 246 247 248 250 251 253 254 255 256 257 258 259 260 261
242 239 236 234 232 231 230 228 226 225 224 223 222 222 223 225 227 228 229 229 230 231 232 233 234 236 236 237 236 236 237 238 239 240 242 244 247 249 250 251 251 250 248 247 246 245 245 244 244 243 242 242 242 242 241 241 240 240 240 240 241 241 242 242 243 243 244 244 244 245 245 246 246 247 247 248 250 251 253 255 256 257 257 258 259 260
246 245 243 241 240 238 238 236 235 233 231 229 227 226 226 226 227 227 227 228 229 231 233 235 237 238 238 238 238 237 237 238 238 240 241 243 244 246 247 249 250 250 249 247 246 246 245 245 244 244 244 244 244 244 244 244 243 243 243 243 243 243 243 243 243 244 245 245 245 246 246 246 247 247 247 248 249 250 252 253 254 255 256 257 259 260
247 248 247 246 245 245 244 244 242 241 239 237 234 232 231 231 230 229 228 227 228 229 231 234 236 238 238 238 237 236 236 236 236 238 240 241 243 244 246 246 247 247 246 245 245 244 244 244 244 244 244 244 245 246 246 246 245 245 245 245 245 245 245 245 245 245 246 246 247 247 247 248 248 248 248 248 248 249 250 251 252 254 255 256 258 261
246 248 249 248 248 247 248 248 248 247 245 244 241 239 238 237 236 234 232 229 228 227 229 231 233 235 237 237 236 234 233 232 233 235 237 240 242 243 244 244 244 244 243 243 242 242 241 241 242 242 243 244 245 246 247 247 247 247 247 247 247 247 246 246 246 247 248 248 249 249 249 249 249 250 249 249 249 249 250 250 251 252 253 255 257 260
244 246 248 249 249 249 249 250 250 250 250 249 247 245 243 242 241 240 238 234 231 229 228 229 230 232 234 235 234 232 231 229 230 231 234 237 239 241 242 242 242 242 242 242 241 241 241 240 241 241 243 244 246 247 247 248 248 247 247 247 248 248 247 248 248 249 249 250 250 250 251 251 252 252 252 252 252 252 252 252 252 253 254 255 257 259
243 244 246 248 249 250 250 250 251 251 252 252 251 250 248 246 245 244 243 240 237 234 233 231 231 232 234 234 234 232 230 228 228 229 231 233 235 237 239 239 239 240 240 241 241 241 241 241 241 241 243 245 246 247 248 248 247 247 248 248 248 248 248 248 249 250 251 251 252 252 252 253 254 255 255 255 255 255 255 255 255 255 255 256 257 258
242 243 244 246 248 249 250 250 251 251 252 252 253 253 252 250 249 248 247 245 243 241 240 239 238 237 236 236 236 235 233 231 229 228 229 230 232 234 235 236 237 237 238 239 239 240 240 241 241 242 243 245 247 248 248 248 248 248 248 248 248 248 248 249 250 251 252 252 253 253 253 254 255 256 257 257 258 258 258 258 258 258 258 258 257 257
241 242 243 245 246 248 249 250 250 250 251 252 252 252 252 251 251 251 251 250 249 247 246 246 245 243 242 240 239 238 237 235 233 231 230 230 231 232 233 234 235 235 236 237 237 238 239 240 241 242 244 245 246 247 248 248 248 248 248 248 248 248 249 250 251 252 253 254 254 255 255 256 257 258 258 259 260 260 260 261 261 260 260 259 258 257
241 242 243 244 245 246 247 248 249 249 249 250 251 251 252 252 252 252 253 253 252 251 251 250 249 248 246 244 243 242 241 240 238 236 234 233 232 232 233 233 234 234 234 235 236 237 239 240 241 243 244 244 245 245 246 247 247 248 248 248 248 249 249 251 252 253 254 255 256 257 258 258 259 259 260 260 261 262 262 263 263 262 261 260 259 258
242 242 243 243 244 244 245 246 247 247 248 248 249 250 251 251 251 252 253 253 254 253 254 253 252 251 249 247 246 246 245 244 243 241 240 237 236 235 234 234 234 234 234 234 235 237 238 240 242 243 243 244 244 244 245 246 247 247 248 248 248 249 250 252 253 254 256 257 258 258 259 260 260 261 261 262 262 263 263 264 264 263 262 261 260 258
243 242 243 243 244 244 244 244 245 245 246 247 248 248 249 250 250 251 251 252 253 253 254 254 254 253 252 250 248 248 248 247 246 245 244 243 241 239 237 236 235 234 234 234 235 236 238 240 241 242 242 243 243 243 244 245 246 247 247 248 248 249 251 252 253 255 256 257 258 259 259 260 260 261 261 262 263 263 263 264 264 263 263 262 260 258
243 243 243 243 244 244 243 243 243 244 244 245 246 247 248 248 249 249 250 250 251 252 253 253 253 253 253 253 251 250 250 250 249 248 247 246 245 243 242 240 238 236 235 234 234 235 237 238 239 240 240 240 241 241 242 243 244 246 246 247 248 249 250 252 253 254 255 257 258 259 260 260 261 261 262 262 262 262 263 263 263 263 262 262 260 258
244 243 243 243 243 244 243 243 242 242 243 243 244 245 246 247 248 248 248 249 249 250 250 251 252 252 252 252 252 252 252 252 251 249 248 247 246 246 246 245 243 240 238 236 235 235 235 236 237 238 238 238 238 239 239 241 242 244 245 246 248 249 250 251 253 254 256 257 258 260 261 261 261 262 262 262 261 261 261 261 261 262 261 261 260 258
244 244 244 243 243 243 243 243 242 242 241 242 242 243 244 246 247 247 247 247 247 248 249 249 250 251 251 251 251 252 253 253 252 251 250 248 247 247 247 248 248 246 243 240 238 236 235 236 236 237 237 237 237 237 238 239 240 242 244 245 247 249 250 251 253 254 256 257 259 260 261 261 261 261 261 261 261 260 260 260 260 260 261 260 260 259
245 245 244 244 243 243 243 243 242 242 241 241 241 242 243 244 245 246 246 246 246 246 247 248 248 249 249 249 250 251 252 252 252 252 251 250 249 248 247 248 249 249 248 245 242 239 237 236 236 237 237 237 237 237 237 238 239 241 243 245 247 249 250 251 252 254 255 256 258 259 259 260 260 260 260 260 259 258 258 258 259 260 260 260 260 260
245 245 245 245 244 244 243 243 242 242 241 241 241 241 242 243 244 245 245 245 245 244 245 246 247 247 248 248 248 249 250 250 251 251 251 251 250 249 248 248 249 250 250 249 246 243 240 239 238 238 238 239 239 239 239 240 241 242 244 245 247 249 250 251 252 253 254 255 256 257 258 258 259 259 259 258 257 256 256 257 258 259 259 260 260 260
245 245 246 246 245 245 244 243 243 242 242 241 241 241 241 242 242 243 244 244 243 242 242 243 245 246 247 247 247 247 247 248 249 250 250 251 251 250 249 249 249 249 250 250 249 247 244 242 241 240 240 241 242 242 243 243 244 245 246 247 248 250 251 251 252 253 253 254 255 256 257 258 258 258 258 257 256 255 254 255 257 258 259 259 260 260
244 245 245 246 246 245 245 244 243 242 242 241 241 241 241 241 241 242 243 243 242 241 240 240 241 243 245 247 247 247 246 245 246 247 248 249 250 250 250 250 249 249 249 250 250 249 248 246 244 243 243 243 244 245 246 247 247 248 249 249 250 251 251 252 252 252 253 254 255 256 257 257 258 258 258 257 256 255 254 255 257 258 259 259 260 260
244 244 245 245 246 246 246 245 245 244 243 242 242 241 241 241 241 241 242 242 241 240 239 237 237 238 241 244 246 246 246 245 245 245 246 248 249 249 250 250 250 249 249 249 250 250 249 249 248 247 246 245 245 246 247 248 248 249 250 250 251 251 251 252 252 252 253 254 255 256 257 257 258 258 258 257 256 256 255 256 257 258 259 259 260 260
244 244 244 244 245 245 246 246 245 245 244 243 242 242 241 241 240 240 240 240 240 239 238 235 234 234 236 238 241 243 245 245 245 245 245 246 247 248 249 249 249 249 249 249 249 249 250 250 250 250 249 249 248 248 248 248 249 249 250 250 251 251 252 252 252 253 253 254 255 256 257 258 258 258 258 258 258 257 257 257 258 258 259 259 259 259
245 244 244 244 244 244 245 245 245 245 245 244 243 243 242 241 241 240 240 239 239 238 237 235 233 232 232 233 235 238 240 241 242 243 244 245 246 247 248 248 248 248 248 248 249 249 249 249 250 251 251 251 251 251 251 250 250 250 250 251 251 251 252 252 253 253 254 254 255 256 257 258 258 259 259 259 258 258 257 257 258 258 258 258 258 258
246 245 244 244 243 243 244 244 245 245 245 245 244 243 242 242 241 240 239 239 238 237 237 236 234 232 230 230 231 233 234 235 237 239 240 241 242 244 245 246 246 246 246 247 247 248 248 248 249 250 251 252 252 253 253 253 253 253 252 252 252 253 253 253 253 253 253 253 254 254 255 256 256 257 258 258 258 258 257 257 257 257 257 257 256 256
247 246 245 245 244 243 243 243 244 244 245 245 244 244 243 242 241 240 240 239 238 237 237 236 235 232 230 229 229 230 231 232 233 235 236 236 237 240 241 242 243 243 244 244 245 246 246 247 247 248 249 250 251 252 253 253 254 254 254 254 254 254 254 254 253 253 252 252 251 252 252 253 254 254 255 255 255 255 255 255 256 256 255 255 255 255
247 247 246 245 245 244 243 243 243 243 244 244 244 244 243 243 242 241 240 240 239 238 237 237 235 233 230 228 228 228 229 230 231 231 231 232 234 236 237 238 239 240 241 241 242 243 244 245 245 246 247 248 249 250 251 252 253 253 254 254 255 255 255 254 254 253 252 251 250 250 251 251 251 252 252 252 252 252 252 253 253 254 254 253 254 254
247 247 246 246 245 244 244 243 243 243 243 243 243 244 243 243 242 242 241 240 239 239 238 237 236 234 231 229 228 228 228 229 229 229 229 230 231 233 233 234 235 237 238 239 239 240 241 242 243 244 244 245 246 247 248 249 251 252 253 253 254 255 255 254 254 253 252 250 250 249 249 249 249 249 249 249 250 250 250 251 251 251 252 252 253 254
247 247 247 246 246 245 244 244 243 243 243 243 243 243 243 243 243 242 242 241 240 239 238 238 236 235 233 230 229 228 228 229 229 229 229 229 230 231 231 232 233 235 236 237 237 238 239 239 240 241 242 243 243 244 245 246 248 249 250 251 253 253 254 254 253 252 251 250 249 248 248 248 247 247 248 248 248 248 248 249 249 249 249 250 251 253
247 247 247 246 246 245 245 244 243 243 243 242 242 242 242 243 242 242 242 241 240 240 239 238 237 236 234 232 230 229 228 230 230 231 231 231 230 230 230 231 232 233 234 235 236 236 237 237 238 239 239 240 241 242 243 244 245 246 247 249 251 252 252 252 252 251 250 249 248 247 246 246 246 246 247 247 247 247 247 247 247 247 248 248 249 251
247 247 246 246 246 245 245 244 243 243 243 242 242 242 242 242 242 242 242 241 241 240 240 239 238 237 235 233 231 230 229 230 231 232 233 233 233 232 230 230 231 232 233 233 234 235 235 236 236 236 237 238 239 240 240 241 242 243 245 246 248 250 250 251 251 250 249 248 247 246 245 245 245 246 246 246 246 246 245 245 246 246 246 247 248 249
246 246 246 246 246 245 245 244 244 243 242 242 242 242 242 242 242 242 242 242 241 241 240 240 239 238 237 235 233 231 231 230 231 232 234 235 236 234 233 231 231 232 232 233 233 233 234 234 234 234 235 236 237 238 239 239 240 241 242 244 245 247 248 249 250 250 249 248 247 246 245 245 245 245 245 245 245 244 244 244 245 245 246 246 248 249
246 246 246 246 246 245 245 244 244 243 243 242 242 241 241 241 241 241 241 241 241 241 240 240 239 239 238 237 235 233 232 231 231 232 234 235 237 237 236 234 233 232 233 233 233 234 234 234 234 234 234 235 235 236 237 238 239 240 241 241 242 244 246 247 248 249 249 249 248 246 245 245 244 245 245 244 244 244 244 244 245 245 246 247 247 248
246 246 246 246 245 245 245 244 244 243 243 242 242 241 241 241 241 241 241 241 241 241 240 240 240 239 238 238 237 236 234 233 232 232 233 235 236 238 238 237 236 235 234 234 234 235 235 235 235 235 235 235 235 235 236 237 238 238 239 240 241 242 243 244 246 247 248 248 248 247 246 245 245 245 244 244 244 244 244 245 245 246 247 247 248 248
246 246 246 246 245 245 245 244 244 243 243 242 242 241 241 241 241 241 241 241 241 241 240 240 240 239 239 238 238 237 236 235 234 233 233 234 236 237 239 239 238 238 237 237 237 236 236 236 236 236 236 235 235 235 235 236 236 237 238 239 239 240 241 242 244 245 246 247 247 247 247 246 245 245 245 245 245 245 245 246 246 247 248 248 248 248
246 246 246 245 245 245 245 244 244 244 243 243 242 241 241 241 240 240 240 240 240 240 240 240 240 239 239 239 238 238 237 236 235 234 234 234 235 236 238 239 239 239 239 239 239 239 239 238 238 237 237 237 236 236 235 235 235 235 236 237 238 239 240 241 242 243 245 246 247 247 247 247 247 246 246 247 247 247 247 247 248 248 248 249 249 249
246 246 245 245 245 245 245 244 244 244 243 243 242 242 241 241 240 240 240 240 240 240 240 240 240 239 239 239 239 239 238 238 237 236 235 235 235 236 237 238 239 240 240 241 241 241 241 241 240 239 238 238 237 237 236 235 234 234 234 235 236 238 239 240 241 242 244 245 246 247 248 248 248 248 249 249 249 249 249 249 249 250 250 250 250 251
246 246 245 245 245 245 244 244 244 244 243 243 242 242 241 241 240 240 240 240 240 240 240 239 239 239 239 239 239 239 239 239 238 237 237 236 236 236 237 238 238 239 241 242 242 243 243 243 242 241 241 240 239 238 237 236 235 234 234 234 235 236 238 239 240 242 243 245 246 247 248 249 250 250 251 251 251 252 252 252 252 252 252 252 252 252
246 246 245 245 245 244 244 244 244 244 243 243 243 242 241 241 241 240 240 240 240 240 240 239 240 240 240 240 239 239 239 239 239 239 238 237 237 237 237 237 238 239 240 242 243 243 243 244 244 243 243 242 241 239 238 237 236 235 234 234 235 235 237 238 239 241 242 244 246 247 248 250 251 251 252 252 253 253 253 254 254 253 253 253 253 253
246 246 245 245 244 244 244 244 244 244 243 243 243 242 242 241 241 240 240 240 240 240 239 239 239 239 240 240 240 240 240 240 240 240 239 239 238 238 237 238 238 239 240 241 242 243 243 244 244 244 244 243 243 242 240 238 237 235 235 234 235 235 236 237 238 240 241 243 245 246 248 249 251 251 252 252 252 252 252 253 253 253 253 253 253 253
246 246 245 245 244 244 244 244 244 243 243 243 242 242 242 241 241 241 240 240 240 239 239 239 239 239 239 240 240 240 240 240 240 240 240 240 239 239 238 238 238 239 239 240 241 242 243 244 244 245 245 245 244 243 242 240 238 236 235 235 235 236 236 237 238 239 240 241 243 245 247 248 250 251 251 251 251 250 249 249 250 251 251 251 251 252
246 246 245 245 244 244 243 243 243 243 243 243 242 242 242 241 241 241 240 240 240 239 239 239 239 239 239 239 240 240 240 240 241 241 241 241 240 240 239 239 239 239 239 240 241 241 243 244 244 244 244 244 245 244 243 242 240 238 236 236 235 236 237 238 239 239 240 241 242 244 245 246 248 249 249 248 247 246 246 246 246 247 249 250 250 251
245 245 245 244 244 243 243 243 243 242 242 242 242 242 242 241 241 241 240 240 240 239 239 239 239 239 239 239 239 240 240 240 241 241 241 242 241 241 241 240 240 240 240 240 240 241 242 243 244 244 244 244 244 244 244 243 242 240 238 237 236 237 237 238 239 240 240 241 241 243 244 245 245 246 246 245 244 243 242 242 243 245 246 248 249 250
245 245 245 244 243 243 242 242 242 242 242 242 242 242 241 241 241 241 240 240 240 240 239 239 239 239 239 239 239 240 240 240 241 241 241 242 242 242 242 241 241 240 240 240 241 241 242 242 243 243 243 243 243 243 244 244 243 242 240 239 238 237 238 238 239 240 241 241 242 242 243 243 243 243 243 242 242 241 240 240 241 243 244 246 248 249
244 244 244 244 243 242 242 242 241 241 241 241 241 241 241 241 241 241 240 240 240 240 239 239 239 239 239 239 239 239 240 240 240 241 241 242 242 242 242 242 242 241 241 241 241 241 242 242 243 243 243 242 242 242 243 243 243 243 242 241 240 239 238 238 239 240 240 241 241 242 241 241 241 241 242 241 241 240 239 239 240 241 243 244 246 248
243 243 243 243 242 242 241 241 240 240 240 240 241 241 241 240 240 240 240 240 240 240 240 239 239 239 239 239 239 239 239 240 240 240 241 241 242 242 243 243 243 242 242 242 241 242 242 242 243 243 243 242 241 241 241 242 243 243 243 242 241 240 239 239 239 239 239 240 240 240 239 239 240 241 242 242 241 240 239 239 239 240 242 244 245 247
242 243 243 242 242 241 240 240 240 239 240 240 240 240 240 240 240 240 240 240 240 240 240 239 239 239 239 239 239 239 239 239 240 240 240 241 242 242 242 243 243 243 243 242 242 242 242 242 243 243 242 241 241 240 241 241 242 242 242 242 242 241 240 239 239 238 238 238 239 238 238 238 239 241 242 243 242 241 240 239 239 240 241 242 244 246
241 242 242 242 241 240 240 239 239 239 239 239 240 240 240 240 240 240 240 240 240 239 239 239 239 239 239 239 239 239 239 239 240 240 240 241 241 242 242 242 243 243 243 243 243 243 243 243 243 243 242 241 240 239 240 241 241 241 241 242 242 242 241 240 239 238 238 237 237 237 237 238 240 242 243 244 243 242 241 240 239 239 240 241 242 244
Height
5691 5693 5695 5696 5697 5699 5700 5703 5705 5707 5709 5711 5713 5715 5717 5718 5720 5721 5722 5725 5727 5730 5732 5733 5734 5735 5736 5737 5738 5739 5740 5742 5744 5746 5748 5750 5752 5754 5755 5758 5759 5761 5762 5763 5765 5766 5768 5769 5771 5773 5775 5776 5778 5780 5782 5784 5786 5787 5789 5790 5791 5792 5795 5795 5795 5797 5798 5799 5800 5801 5803 5804 5805 5806 5807 5808 5809 5809 5810 5811 5811 5812 5813 5813 5814 5815
5687 5688 5690 5691 5693 5694 5695 5697 5699 5701 5704 5706 5708 5710 5712 5714 5715 5716 5718 5720 5722 5724 5727 5729 5730 5731 5732 5733 5734 5735 5736 5738 5740 5741 5743 5745 5747 5750 5751 5754 5755 5757 5758 5759 5760 5762 5764 5765 5767 5769 5770 5772 5774 5776 5778 5780 5782 5783 5785 5786 5787 5789 5790 5791 5792 5793 5794 5795 5796 5798 5799 5800 5802 5803 5804 5805 5805 5806 5807 5808 5809 5809 5810 5810 5811 5811
5684 5685 5687 5688 5690 5691 5692 5694 5695 5696 5698 5700 5703 5705 5707 5709 5711 5713 5715 5717 5718 5719 5721 5723 5725 5728 5729 5730 5731 5732 5733 5735 5736 5738 5739 5741 5743 5745 5747 5749 5751 5753 5754 5755 5756 5757 5759 5761 5763 5765 5767 5769 5770 5772 5774 5776 5778 5779 5781 5782 5783 5784 5785 5788 5789 5790 5791 5792 5793 5794 5796 5797 5798 5799 5800 5801 5802 5803 5804 5805 5805 5806 5806 5807 5808 5808
5682 5683 5684 5685 5686 5688 5689 5690 5691 5692 5694 5695 5697 5700 5703 5705 5707 5709 5711 5713 5715 5716 5717 5718 5720 5723 5725 5726 5728 5730 5731 5734 5735 5736 5736 5738 5740 5742 5744 5745 5746 5748 5749 5750 5752 5753 5755 5757 5759 5761 5763 5765 5766 5768 5770 5771 5773 5775 5776 5778 5779 5780 5781 5784 5785 5786 5787 5788 5790 5791 5792 5793 5795 5795 5796 5797 5798 5799 5800 5801 5802 5803 5803 5804 5805 5805
5679 5680 5681 5682 5684 5685 5686 5687 5688 5689 5690 5692 5693 5695 5698 5700 5703 5705 5707 5710 5711 5712 5713 5715 5717 5719 5720 5723 5725 5727 5728 5730 5733 5736 5737 5736 5737 5738 5740 5741 5742 5743 5745 5746 5747 5749 5751 5753 5755 5757 5759 5761 5762 5764 5765 5767 5769 5770 5772 5773 5775 5776 5777 5779 5780 5782 5783 5785 5786 5787 5788 5790 5791 5792 5793 5793 5794 5795 5796 5797 5798 5799 5800 5801 5802 5802
5675 5677 5678 5680 5681 5682 5683 5684 5685 5686 5687 5689 5690 5692 5693 5695 5698 5701 5703 5705 5707 5708 5709 5711 5713 5715 5716 5718 5720 5723 5725 5728 5730 5733 5735 5737 5736 5736 5735 5736 5738 5739 5740 5741 5743 5745 5747 5750 5752 5754 5755 5757 5758 5760 5761 5763 5764 5766 5767 5769 5770 5772 5774 5775 5777 5778 5779 5781 5782 5783 5784 5786 5787 5788 5789 5790 5791 5792 5792 5793 5794 5795 5797 5798 5799 5798
5671 5674 5675 5676 5677 5679 5680 5681 5682 5683 5684 5685 5687 5688 5690 5692 5694 5696 5698 5700 5702 5704 5705 5706 5708 5710 5712 5714 5716 5718 5721 5725 5727 5729 5731 5733 5734 5734 5734 5733 5733 5735 5736 5738 5740 5742 5744 5746 5748 5750 5751 5753 5755 5756 5758 5759 5760 5762 5764 5765 5767 5769 5770 5772 5773 5774 5775 5777 5778 5780 5781 5782 5784 5785 5786 5787 5788 5788 5789 5790 5790 5792 5794 5795 5795 5794
5667 5669 5671 5673 5674 5675 5676 5678 5679 5680 5681 5682 5683 5685 5687 5689 5690 5692 5693 5695 5698 5700 5701 5703 5704 5706 5708 5710 5712 5714 5717 5720 5723 5725 5726 5728 5729 5730 5731 5731 5731 5732 5733 5735 5736 5738 5740 5743 5745 5746 5748 5750 5751 5753 5754 5756 5757 5759 5760 5761 5763 5765 5766 5768 5769 5770 5772 5773 5774 5776 5778 5779 5780 5781 5782 5783 5784 5785 5786 5786 5787 5788 5789 5790 5790 5790
5664 5665 5667 5669 5670 5672 5673 5674 5675 5676 5678 5679 5680 5682 5684 5685 5687 5688 5690 5692 5693 5695 5697 5700 5701 5702 5704 5706 5708 5710 5713 5715 5718 5721 5722 5723 5724 5725 5725 5728 5729 5730 5731 5733 5734 5735 5737 5740 5741 5742 5744 5746 5748 5750 5751 5752 5754 5755 5757 5758 5759 5761 5763 5764 5766 5767 5768 5769 5770 5772 5774 5775 5775 5776 5778 5779 5780 5781 5782 5783 5784 5785 5785 5786 5787 5788
5661 5662 5663 5664 5666 5668 5670 5671 5672 5673 5675 5676 5677 5679 5680 5682 5683 5685 5686 5688 5689 5691 5693 5695 5697 5700 5701 5703 5705 5706 5708 5710 5714 5717 5718 5719 5719 5720 5722 5723 5725 5727 5728 5729 5730 5732 5735 5737 5739 5740 5741 5743 5744 5746 5748 5749 5750 5752 5754 5755 5755 5757 5759 5760 5762 5763 5764 5765 5767 5768 5770 5770 5771 5773 5774 5775 5776 5777 5778 5779 5780 5780 5781 5782 5784 5785
5658 5659 5660 5660 5662 5664 5666 5668 5669 5670 5671 5673 5674 5676 5678 5679 5680 5681 5682 5683 5685 5688 5690 5691 5694 5696 5699 5700 5701 5702 5704 5706 5708 5711 5714 5716 5717 5718 5719 5720 5721 5723 5724 5725 5727 5729 5731 5733 5735 5737 5739 5739 5740 5742 5744 5746 5747 5749 5750 5751 5752 5753 5755 5756 5758 5759 5760 5761 5763 5765 5766 5767 5768 5770 5770 5771 5772 5773 5774 5775 5776 5777 5778 5779 5781 5782
5653 5655 5656 5657 5658 5660 5662 5664 5666 5667 5669 5670 5671 5673 5674 5675 5677 5678 5679 5680 5682 5684 5686 5688 5690 5692 5695 5697 5698 5699 5700 5701 5703 5705 5709 5711 5714 5715 5716 5717 5718 5720 5721 5723 5724 5726 5727 5729 5731 5733 5734 5735 5738 5739 5740 5742 5743 5745 5746 5747 5748 5749 5751 5753 5754 5755 5756 5757 5759 5761 5762 5764 5765 5766 5767 5768 5768 5769 5770 5771 5772 5773 5775 5776 5778 5779
5649 5650 5652 5653 5655 5656 5658 5660 5662 5664 5665 5666 5667 5668 5670 5671 5673 5674 5675 5677 5679 5681 5683 5685 5686 5688 5690 5693 5695 5696 5697 5698 5699 5701 5703 5705 5708 5711 5713 5714 5715 5716 5718 5720 5722 5724 5725 5726 5728 5729 5730 5732 5734 5735 5736 5737 5739 5740 5742 5743 5744 5746 5748 5749 5750 5751 5752 5754 5756 5758 5758 5760 5761 5762 5763 5764 5765 5766 5767 5767 5768 5770 5771 5773 5774 5775
5644 5646 5648 5649 5651 5652 5654 5656 5658 5660 5660 5662 5663 5664 5665 5667 5669 5671 5672 5674 5675 5677 5679 5681 5683 5685 5686 5689 5690 5692 5694 5695 5696 5698 5699 5701 5703 5705 5708 5710 5711 5712 5714 5716 5718 5719 5720 5722 5724 5725 5726 5728 5730 5732 5734 5735 5736 5738 5739 5740 5741 5742 5744 5745 5746 5747 5749 5750 5753 5755 5755 5756 5758 5759 5760 5760 5761 5762 5763 5764 5765 5766 5767 5769 5770 5771
5639 5641 5643 5644 5646 5648 5650 5651 5653 5655 5656 5658 5659 5660 5662 5664 5666 5668 5669 5670 5672 5674 5675 5677 5678 5680 5683 5685 5687 5688 5690 5692 5693 5695 5696 5697 5699 5701 5704 5706 5707 5709 5711 5713 5714 5715 5716 5717 5718 5720 5722 5724 5726 5728 5730 5732 5734 5735 5737 5737 5737 5738 5740 5741 5742 5744 5745 5747 5749 5750 5751 5753 5754 5755 5756 5757 5758 5758 5759 5760 5761 5762 5763 5765 5766 5767
5634 5636 5638 5639 5641 5643 5645 5647 5649 5650 5652 5654 5655 5656 5658 5660 5661 5663 5665 5666 5668 5670 5671 5673 5674 5676 5679 5681 5684 5685 5687 5688 5690 5691 5693 5694 5695 5697 5699 5701 5703 5704 5706 5708 5710 5711 5712 5713 5714 5716 5718 5720 5722 5723 5725 5728 5729 5730 5732 5733 5733 5734 5736 5737 5739 5740 5741 5743 5745 5747 5748 5749 5750 5751 5752 5753 5754 5755 5755 5756 5757 5758 5760 5761 5762 5763
5630 5632 5633 5634 5636 5638 5641 5643 5645 5646 5647 5649 5651 5652 5653 5655 5656 5658 5660 5662 5664 5666 5667 5668 5670 5672 5674 5677 5680 5682 5684 5685 5686 5688 5690 5691 5692 5694 5695 5696 5698 5699 5701 5703 5704 5706 5708 5709 5711 5713 5715 5716 5718 5720 5721 5723 5724 5725 5727 5728 5729 5731 5732 5734 5735 5736 5737 5739 5740 5742 5744 5745 5746 5747 5748 5749 5750 5750 5751 5753 5754 5755 5755 5757 5758 5760
5625 5627 5628 5629 5631 5633 5635 5638 5640 5641 5643 5645 5646 5647 5648 5650 5652 5654 5656 5658 5660 5662 5663 5664 5666 5668 5670 5673 5675 5677 5679 5681 5683 5684 5686 5687 5688 5690 5692 5693 5693 5695 5696 5698 5700 5702 5704 5705 5707 5709 5711 5713 5715 5716 5717 5719 5720 5721 5723 5724 5725 5727 5729 5730 5731 5732 5734 5735 5736 5737 5739 5740 5741 5743 5744 5744 5745 5746 5747 5748 5749 5750 5751 5753 5754 5755
5620 5621 5623 5624 5626 5628 5630 5633 5635 5636 5637 5639 5640 5642 5644 5645 5647 5650 5652 5654 5655 5657 5658 5660 5662 5664 5667 5669 5670 5671 5674 5676 5678 5679 5681 5682 5684 5686 5688 5689 5690 5690 5692 5694 5696 5698 5700 5701 5703 5705 5706 5708 5710 5712 5713 5715 5716 5717 5719 5720 5722 5723 5725 5726 5727 5728 5729 5730 5732 5733 5735 5736 5737 5738 5739 5740 5741 5742 5743 5744 5745 5746 5747 5749 5750 5751
5615 5616 5618 5619 5621 5623 5625 5628 5629 5630 5632 5634 5635 5637 5639 5640 5642 5644 5646 5649 5651 5652 5654 5656 5658 5660 5662 5664 5666 5668 5669 5671 5673 5675 5675 5677 5680 5682 5683 5685 5686 5687 5689 5690 5692 5694 5695 5697 5699 5700 5702 5704 5705 5707 5709 5710 5712 5713 5715 5716 5718 5719 5720 5722 5723 5724 5725 5726 5727 5729 5730 5732 5733 5734 5735 5736 5737 5738 5739 5740 5741 5742 5743 5744 5745 5746
5610 5612 5613 5614 5616 5619 5621 5622 5623 5625 5626 5628 5630 5633 5635 5636 5637 5639 5641 5644 5646 5648 5650 5652 5653 5655 5657 5660 5661 5663 5665 5667 5669 5670 5670 5673 5675 5677 5679 5680 5682 5683 5685 5687 5689 5690 5692 5693 5694 5696 5697 5699 5701 5703 5705 5706 5708 5709 5710 5712 5713 5715 5716 5717 5719 5720 5721 5722 5723 5725 5726 5727 5729 5730 5731 5732 5733 5734 5735 5736 5737 5738 5739 5740 5741 5742
5606 5607 5607 5609 5612 5614 5615 5616 5617 5619 5621 5624 5626 5628 5629 5630 5632 5634 5636 5638 5641 5643 5645 5647 5648 5650 5652 5655 5657 5659 5661 5663 5664 5665 5666 5669 5670 5672 5675 5676 5678 5679 5681 5683 5685 5686 5687 5689 5690 5691 5693 5695 5697 5699 5700 5702 5703 5705 5706 5707 5709 5710 5711 5713 5714 5715 5716 5718 5719 5720 5722 5723 5724 5725 5726 5727 5728 5730 5731 5732 5733 5734 5735 5736 5737 5737
5601 5602 5603 5604 5606 5608 5609 5610 5612 5615 5617 5619 5620 5622 5623 5625 5627 5629 5630 5633 5635 5637 5640 5641 5643 5645 5648 5650 5652 5654 5657 5659 5660 5661 5663 5664 5665 5667 5670 5672 5674 5675 5677 5679 5680 5682 5683 5685 5686 5687 5689 5691 5692 5694 5695 5697 5699 5700 5701 5703 5704 5706 5707 5708 5710 5711 5712 5713 5715 5716 5717 5719 5720 5721 5722 5723 5725 5725 5727 5728 5729 5730 5730 5731 5732 5733
5596 5597 5598 5600 5601 5602 5603 5605 5607 5609 5611 5613 5614 5615 5617 5620 5622 5624 5625 5627 5630 5632 5634 5637 5640 5642 5644 5645 5647 5649 5651 5654 5656 5658 5659 5659 5660 5662 5665 5668 5670 5671 5672 5675 5676 5678 5679 5680 5682 5684 5685 5687 5688 5690 5691 5692 5694 5695 5697 5698 5700 5701 5703 5704 5705 5706 5708 5709 5710 5711 5713 5714 5715 5717 5718 5720 5721 5721 5723 5724 5725 5725 5726 5727 5728 5729
5591 5592 5593 5594 5595 5596 5597 5600 5601 5604 5605 5607 5609 5610 5612 5614 5616 5618 5620 5623 5625 5627 5629 5632 5635 5637 5639 5640 5642 5644 5646 5648 5651 5653 5654 5654 5656 5658 5661 5663 5665 5666 5668 5670 5672 5673 5675 5676 5678 5680 5681 5683 5684 5685 5686 5688 5689 5691 5692 5694 5695 5697 5698 5699 5700 5702 5703 5704 5705 5707 5708 5709 5711 5712 5714 5715 5717 5718 5719 5720 5721 5722 5723 5724 5724 5725
5586 5587 5588 5590 5590 5591 5592 5594 5596 5598 5599 5601 5603 5605 5607 5609 5611 5613 5615 5618 5620 5621 5623 5626 5628 5631 5634 5637 5639 5640 5642 5644 5646 5648 5649 5650 5651 5653 5656 5658 5660 5662 5663 5665 5667 5669 5670 5671 5673 5675 5677 5678 5679 5680 5682 5683 5685 5686 5688 5689 5690 5692 5693 5695 5696 5697 5699 5700 5701 5702 5703 5705 5706 5707 5709 5711 5712 5714 5715 5716 5717 5718 5720 5720 5721 5721
5580 5582 5583 5585 5585 5586 5587 5589 5590 5592 5594 5596 5598 5600 5601 5604 5606 5609 5611 5612 5613 5615 5617 5620 5622 5625 5629 5633 5635 5636 5638 5640 5642 5643 5645 5646 5648 5648 5650 5653 5655 5657 5659 5661 5662 5664 5666 5667 5668 5670 5672 5673 5675 5676 5677 5679 5680 5681 5683 5684 5686 5687 5689 5690 5692 5693 5695 5697 5698 5700 5700 5701 5702 5703 5705 5706 5708 5710 5711 5713 5713 5714 5716 5717 5717 5717
5574 5576 5577 5579 5580 5581 5582 5584 5585 5586 5588 5590 5592 5594 5596 5599 5601 5604 5605 5605 5607 5609 5612 5615 5617 5620 5623 5627 5629 5631 5634 5636 5637 5639 5641 5643 5643 5644 5645 5648 5651 5653 5654 5655 5657 5660 5662 5663 5664 5665 5667 5669 5670 5672 5673 5674 5676 5677 5678 5680 5681 5683 5684 5686 5687 5689 5691 5694 5696 5698 5699 5700 5700 5701 5703 5704 5705 5707 5709 5709 5710 5710 5712 5712 5713 5713
5568 5570 5572 5573 5575 5576 5577 5579 5580 5581 5583 5585 5586 5588 5590 5593 5596 5597 5598 5599 5602 5605 5608 5610 5611 5614 5617 5620 5623 5626 5629 5631 5632 5634 5637 5639 5638 5638 5641 5645 5647 5648 5649 5650 5652 5655 5656 5658 5659 5661 5663 5665 5666 5667 5669 5670 5672 5673 5674 5675 5676 5678 5679 5681 5682 5684 5686 5689 5692 5694 5694 5695 5696 5698 5699 5701 5703 5704 5705 5706 5706 5707 5708 5708 5708 5708
5562 5564 5566 5568 5569 5571 5572 5574 5575 5576 5578 5579 5581 5583 5585 5587 5590 5591 5592 5594 5598 5601 5603 5603 5605 5608 5611 5614 5617 5621 5624 5626 5627 5629 5632 5633 5633 5633 5636 5640 5642 5643 5644 5646 5648 5649 5650 5652 5655 5657 5659 5661 5662 5664 5665 5666 5668 5669 5670 5671 5672 5673 5675 5676 5678 5679 5681 5683 5685 5687 5688 5690 5691 5692 5694 5696 5698 5699 5700 5701 5702 5703 5703 5703 5703 5703
5556 5558 5560 5561 5563 5565 5566 5568 5569 5571 5572 5574 5575 5577 5579 5581 5583 5585 5586 5590 5594 5596 5596 5597 5599 5603 5606 5609 5612 5615 5617 5619 5621 5623 5626 5627 5627 5628 5632 5635 5636 5637 5640 5642 5643 5644 5645 5647 5650 5653 5655 5657 5658 5660 5661 5662 5663 5664 5665 5667 5669 5670 5670 5672 5673 5674 5675 5677 5679 5680 5682 5684 5685 5687 5689 5690 5692 5693 5694 5695 5696 5697 5698 5698 5699 5700
5551 5552 5554 5555 5557 5559 5561 5562 5564 5565 5567 5568 5570 5572 5574 5575 5577 5579 5581 5584 5587 5589 5590 5592 5595 5598 5601 5604 5606 5609 5610 5613 5615 5617 5619 5621 5621 5623 5627 5630 5631 5632 5635 5636 5637 5638 5640 5643 5645 5649 5651 5652 5654 5655 5656 5658 5659 5660 5662 5664 5665 5665 5666 5668 5669 5670 5671 5672 5674 5675 5676 5678 5680 5682 5684 5685 5686 5687 5689 5690 5691 5692 5693 5694 5695 5696
5545 5546 5548 5549 5551 5553 5555 5556 5558 5560 5561 5563 5564 5566 5568 5570 5571 5573 5575 5578 5581 5583 5585 5587 5590 5593 5596 5598 5600 5603 5605 5607 5609 5610 5612 5614 5615 5617 5620 5624 5626 5627 5630 5632 5633 5634 5635 5638 5641 5644 5646 5647 5649 5650 5652 5654 5655 5657 5658 5660 5661 5661 5662 5664 5665 5666 5666 5667 5669 5670 5671 5672 5674 5676 5678 5679 5680 5682 5683 5684 5685 5686 5688 5690 5691 5693
5539 5540 5542 5543 5545 5547 5548 5550 5552 5553 5555 5557 5559 5560 5562 5564 5565 5568 5570 5572 5575 5577 5580 5582 5585 5588 5590 5592 5595 5597 5600 5602 5603 5604 5605 5607 5608 5610 5614 5618 5620 5622 5624 5627 5628 5630 5631 5633 5636 5639 5641 5642 5644 5646 5648 5650 5652 5653 5655 5656 5657 5657 5659 5660 5661 5662 5662 5663 5664 5665 5666 5668 5669 5671 5673 5674 5675 5677 5678 5679 5680 5682 5683 5685 5686 5688
5532 5534 5535 5537 5539 5540 5542 5544 5545 5547 5549 5551 5553 5554 5556 5558 5560 5562 5564 5566 5569 5571 5574 5577 5580 5582 5585 5587 5590 5592 5594 5595 5596 5598 5599 5600 5602 5604 5608 5612 5615 5617 5619 5621 5623 5625 5627 5629 5631 5634 5636 5637 5640 5642 5643 5645 5648 5650 5651 5652 5653 5654 5655 5656 5657 5658 5658 5659 5660 5660 5661 5663 5665 5666 5668 5669 5671 5672 5673 5675 5676 5677 5679 5680 5681 5683
5526 5528 5529 5531 5532 5534 5536 5537 5539 5541 5543 5545 5547 5549 5550 5552 5554 5556 5558 5561 5563 5566 5568 5571 5574 5576 5579 5582 5584 5586 5588 5589 5590 5593 5595 5595 5597 5599 5602 5606 5609 5611 5614 5616 5618 5620 5622 5624 5626 5629 5631 5633 5635 5636 5638 5640 5643 5645 5646 5647 5649 5650 5650 5652 5653 5655 5655 5655 5656 5656 5657 5659 5660 5662 5663 5665 5666 5668 5669 5670 5671 5673 5674 5675 5677 5678
5520 5521 5523 5524 5526 5527 5529 5531 5533 5535 5537 5539 5541 5543 5545 5547 5549 5551 5553 5555 5557 5560 5563 5565 5568 5570 5573 5576 5578 5580 5582 5583 5585 5588 5590 5591 5592 5594 5597 5600 5603 5606 5608 5610 5612 5614 5617 5619 5621 5624 5626 5628 5630 5631 5634 5636 5638 5640 5641 5642 5644 5645 5646 5648 5649 5650 5651 5652 5652 5653 5654 5655 5656 5658 5659 5661 5663 5664 5665 5665 5667 5668 5670 5671 5673 5674
5513 5515 5516 5518 5520 5521 5523 5525 5526 5529 5530 5533 5535 5537 5540 5541 5543 5545 5547 5549 5552 5554 5557 5560 5562 5565 5567 5570 5572 5574 5576 5578 5581 5584 5585 5586 5587 5589 5592 5594 5597 5600 5603 5604 5606 5608 5610 5613 5615 5618 5621 5622 5625 5627 5629 5632 5634 5635 5635 5637 5639 5641 5642 5643 5645 5646 5647 5648 5649 5650 5651 5652 5653 5654 5655 5657 5658 5659 5660 5661 5662 5664 5665 5667 5669 5670
5506 5508 5509 5511 5513 5515 5516 5518 5520 5522 5524 5526 5529 5531 5534 5536 5538 5540 5542 5544 5546 5548 5551 5554 5556 5559 5561 5564 5566 5568 5570 5573 5575 5578 5579 5580 5582 5585 5587 5589 5591 5593 5596 5598 5600 5602 5605 5607 5610 5612 5615 5617 5620 5622 5624 5626 5628 5629 5630 5633 5635 5636 5637 5638 5640 5641 5643 5644 5645 5647 5648 5648 5649 5650 5651 5652 5653 5654 5655 5656 5658 5659 5661 5663 5664 5665
5499 5501 5503 5505 5507 5508 5510 5512 5514 5515 5518 5521 5523 5525 5528 5530 5532 5534 5536 5538 5540 5543 5545 5548 5550 5553 5555 5558 5560 5563 5565 5567 5570 5572 5574 5575 5577 5580 5582 5584 5586 5587 5590 5592 5594 5596 5599 5601 5604 5607 5609 5612 5614 5616 5618 5620 5622 5623 5626 5629 5630 5631 5631 5633 5635 5637 5638 5639 5640 5642 5643 5644 5645 5646 5647 5648 5649 5650 5651 5652 5654 5655 5656 5658 5659 5660
5493 5495 5497 5499 5500 5502 5504 5505 5507 5510 5513 5515 5517 5520 5522 5524 5526 5528 5530 5533 5535 5537 5539 5542 5545 5547 5550 5552 5555 5557 5559 5561 5564 5566 5568 5570 5572 5575 5577 5579 5580 5582 5584 5586 5589 5591 5594 5596 5599 5601 5604 5606 5609 5610 5613 5615 5616 5618 5620 5622 5624 5625 5627 5629 5631 5632 5633 5635 5636 5637 5638 5640 5641 5642 5643 5645 5645 5647 5647 5649 5650 5651 5653 5654 5655 5656
5487 5489 5490 5492 5494 5496 5498 5500 5502 5504 5507 5509 5511 5514 5515 5517 5520 5522 5524 5527 5530 5532 5534 5537 5540 5542 5545 5547 5549 5551 5553 5555 5558 5560 5563 5565 5567 5569 5571 5573 5575 5577 5579 5581 5584 5586 5588 5591 5594 5596 5599 5601 5603 5605 5607 5609 5611 5613 5615 5617 5618 5620 5623 5625 5626 5627 5629 5630 5631 5633 5635 5636 5637 5638 5639 5641 5642 5643 5644 5645 5646 5647 5649 5650 5651 5653
5480 5482 5484 5486 5488 5490 5492 5494 5496 5499 5501 5503 5505 5507 5509 5511 5514 5517 5519 5522 5524 5526 5529 5531 5534 5536 5539 5541 5543 5545 5548 5550 5552 5555 5557 5560 5562 5564 5566 5568 5570 5572 5574 5577 5579 5581 5583 5585 5589 5591 5594 5596 5598 5600 5601 5603 5605 5608 5610 5611 5613 5616 5619 5619 5620 5622 5625 5626 5627 5629 5630 5632 5633 5634 5635 5637 5638 5639 5640 5642 5643 5644 5645 5645 5647 5649
5474 5475 5478 5480 5483 5485 5486 5489 5491 5493 5494 5496 5499 5501 5503 5505 5508 5511 5514 5516 5518 5520 5523 5526 5529 5531 5534 5535 5538 5540 5542 5544 5546 5549 5551 5554 5556 5558 5561 5563 5565 5567 5569 5572 5574 5575 5577 5580 5584 5586 5588 5590 5593 5595 5596 5597 5600 5602 5604 5606 5608 5610 5612 5613 5615 5618 5621 5622 5623 5625 5626 5628 5629 5631 5632 5633 5634 5635 5636 5638 5640 5640 5641 5641 5643 5644
5467 5470 5472 5475 5477 5479 5481 5483 5485 5486 5488 5491 5493 5495 5497 5500 5503 5505 5508 5510 5512 5515 5518 5520 5523 5526 5528 5530 5531 5534 5536 5539 5541 5544 5546 5548 5550 5553 5555 5558 5560 5562 5564 5567 5569 5570 5573 5575 5578 5580 5582 5585 5587 5589 5590 5592 5594 5596 5599 5601 5604 5606 5607 5608 5611 5614 5616 5617 5619 5621 5622 5624 5626 5628 5629 5630 5630 5632 5633 5635 5636 5636 5637 5637 5638 5640
5462 5465 5467 5469 5471 5473 5475 5477 5479 5481 5484 5486 5488 5490 5492 5495 5497 5500 5502 5504 5507 5509 5512 5515 5518 5520 5522 5524 5525 5528 5531 5534 5536 5538 5540 5543 5545 5547 5550 5552 5555 5557 5559 5561 5563 5565 5568 5570 5572 5575 5577 5580 5583 5584 5585 5587 5589 5591 5594 5596 5598 5601 5603 5605 5606 5609 5610 5612 5614 5616 5618 5620 5622 5624 5625 5626 5627 5628 5629 5631 5632 5632 5632 5633 5634 5635
5456 5459 5461 5463 5465 5468 5470 5472 5474 5476 5479 5481 5482 5484 5487 5489 5492 5494 5496 5499 5501 5504 5506 5510 5512 5515 5516 5518 5520 5523 5526 5528 5530 5533 5535 5537 5540 5542 5545 5547 5550 5552 5554 5556 5558 5560 5563 5565 5567 5570 5572 5575 5577 5579 5580 5582 5585 5587 5589 5591 5593 5596 5598 5600 5601 5603 5605 5608 5610 5612 5614 5616 5619 5620 5620 5621 5622 5623 5625 5626 5627 5628 5628 5629 5630 5631
5451 5453 5455 5458 5460 5463 5465 5467 5469 5471 5473 5475 5477 5479 5482 5484 5487 5489 5491 5493 5496 5499 5501 5504 5507 5509 5511 5512 5515 5518 5520 5523 5525 5527 5530 5532 5535 5537 5539 5542 5544 5546 5549 5551 5553 5555 5557 5559 5562 5565 5567 5570 5572 5573 5575 5577 5580 5583 5585 5586 5589 5591 5593 5595 5596 5598 5601 5603 5605 5607 5609 5611 5612 5613 5614 5615 5617 5618 5619 5620 5622 5623 5625 5625 5626 5627
5446 5448 5450 5453 5455 5458 5460 5462 5464 5466 5468 5470 5472 5474 5477 5479 5482 5484 5486 5488 5491 5494 5496 5499 5501 5503 5505 5507 5510 5512 5515 5517 5520 5522 5525 5527 5530 5532 5534 5536 5539 5541 5544 5546 5548 5550 5552 5554 5557 5559 5562 5565 5567 5569 5570 5573 5575 5578 5580 5582 5584 5586 5588 5590 5592 5594 5597 5599 5601 5603 5605 5606 5606 5607 5609 5610 5611 5612 5614 5615 5617 5619 5620 5621 5622 5623
5441 5444 5445 5448 5450 5453 5455 5457 5459 5461 5463 5465 5467 5470 5472 5474 5477 5479 5481 5483 5486 5489 5491 5494 5496 5498 5500 5502 5505 5507 5510 5512 5515 5517 5520 5522 5525 5527 5529 5531 5534 5536 5539 5541 5543 5545 5547 5550 5552 5554 5557 5560 5563 5565 5566 5568 5570 5573 5575 5577 5579 5581 5584 5585 5587 5590 5592 5594 5596 5598 5599 5600 5601 5603 5604 5605 5606 5607 5608 5610 5612 5613 5615 5616 5617 5618
5436 5439 5441 5443 5446 5448 5450 5452 5454 5456 5458 5460 5462 5465 5467 5470 5472 5475 5476 5479 5481 5484 5486 5488 5491 5493 5495 5497 5499 5502 5505 5507 5510 5512 5515 5517 5520 5522 5525 5527 5529 5531 5534 5536 5538 5540 5542 5545 5547 5549 5552 5555 5558 5560 5562 5564 5565 5568 5570 5572 5574 5576 5579 5581 5583 5585 5587 5589 5591 5592 5593 5595 5596 5597 5598 5600 5600 5602 5603 5605 5606 5607 5609 5610 5612 5613